Time,TemperatureF,DewpointF,PressureIn,WindDirection,WindDirectionDegrees,WindSpeedMPH,WindSpeedGustMPH,Humidity,HourlyPrecipIn,Conditions,Clouds,dailyrainin,SolarRadiationWatts/m^2,SoftwareType,DateUTC
2013-01-03 00:02:00,37.0,33.0,-100.00,NW,307,3.0,4.0,85,0.00,,,0.00,0.000000,,2013-01-03 06:02:00,
2013-01-03 00:22:00,36.0,33.0,-100.00,NNW,335,5.0,7.0,87,0.00,,,0.00,0.000000,,2013-01-03 06:22:00,
2013-01-03 00:33:00,36.0,33.0,-100.00,NNW,335,5.0,7.0,87,0.00,,,0.00,0.000000,,2013-01-03 06:33:00,
2013-01-03 00:42:00,36.0,33.0,-100.00,NNW,335,5.0,7.0,87,0.00,,,0.00,0.000000,,2013-01-03 06:42:00,
2013-01-03 00:52:00,36.0,33.0,-100.00,NNW,335,5.0,7.0,87,0.00,,,0.00,0.000000,,2013-01-03 06:52:00,
2013-01-03 01:02:00,36.0,33.0,-100.00,NNW,335,5.0,7.0,87,0.00,,,0.00,0.000000,,2013-01-03 07:02:00,
2013-01-03 01:22:00,35.0,32.0,-100.00,NNW,330,4.0,6.0,87,0.00,,,0.00,0.000000,,2013-01-03 07:22:00,
2013-01-03 01:33:00,35.0,32.0,-100.00,NNW,330,4.0,6.0,87,0.00,,,0.00,0.000000,,2013-01-03 07:33:00,
2013-01-03 01:43:00,35.0,32.0,-100.00,NNW,330,4.0,6.0,87,0.00,,,0.00,0.000000,,2013-01-03 07:43:00,
2013-01-03 01:53:00,35.0,32.0,-100.00,NNW,330,4.0,6.0,87,0.00,,,0.00,0.000000,,2013-01-03 07:53:00,
2013-01-03 02:02:00,35.0,32.0,-100.00,NNW,330,4.0,6.0,87,0.00,,,0.00,0.000000,,2013-01-03 08:02:00,
2013-01-03 02:23:00,34.0,31.0,-100.00,NNW,331,4.0,6.0,88,0.00,,,0.00,0.000000,,2013-01-03 08:23:00,
2013-01-03 02:33:00,34.0,31.0,-100.00,NNW,331,4.0,6.0,88,0.00,,,0.00,0.000000,,2013-01-03 08:33:00,
2013-01-03 02:43:00,34.0,31.0,-100.00,NNW,331,4.0,6.0,88,0.00,,,0.00,0.000000,,2013-01-03 08:43:00,
2013-01-03 02:53:00,34.0,31.0,-100.00,NNW,331,4.0,6.0,88,0.00,,,0.00,0.000000,,2013-01-03 08:53:00,
2013-01-03 03:02:00,34.0,31.0,-100.00,NNW,331,4.0,6.0,88,0.00,,,0.00,0.000000,,2013-01-03 09:02:00,
2013-01-03 03:22:00,34.0,31.0,-100.00,NW,322,2.0,6.0,87,0.00,,,0.00,0.000000,,2013-01-03 09:22:00,
2013-01-03 03:34:00,34.0,31.0,-100.00,NW,322,2.0,6.0,87,0.00,,,0.00,0.000000,,2013-01-03 09:34:00,
2013-01-03 03:43:00,34.0,31.0,-100.00,NW,322,2.0,6.0,87,0.00,,,0.00,0.000000,,2013-01-03 09:43:00,
2013-01-03 03:53:00,34.0,31.0,-100.00,NW,322,2.0,6.0,87,0.00,,,0.00,0.000000,,2013-01-03 09:53:00,
2013-01-03 04:02:00,34.0,31.0,-100.00,NW,322,2.0,6.0,87,0.00,,,0.00,0.000000,,2013-01-03 10:02:00,
2013-01-03 04:33:00,31.0,29.0,-100.00,WNW,283,0.0,4.0,92,0.00,,,-99.99,0.000000,,2013-01-03 10:33:00,
2013-01-03 04:43:00,31.0,29.0,-100.00,WNW,283,0.0,4.0,92,0.00,,,-99.99,0.000000,,2013-01-03 10:43:00,
2013-01-03 04:53:00,31.0,29.0,-100.00,WNW,283,0.0,4.0,92,0.00,,,-99.99,0.000000,,2013-01-03 10:53:00,
2013-01-03 05:02:00,31.0,29.0,-100.00,WNW,283,0.0,4.0,92,0.00,,,-99.99,0.000000,,2013-01-03 11:02:00,
2013-01-03 05:33:00,29.0,27.0,-100.00,West,281,0.0,0.0,94,0.00,,,0.00,0.000000,,2013-01-03 11:33:00,
2013-01-03 05:43:00,29.0,27.0,-100.00,West,281,0.0,0.0,94,0.00,,,0.00,0.000000,,2013-01-03 11:43:00,
2013-01-03 05:53:00,29.0,27.0,-100.00,West,281,0.0,0.0,94,0.00,,,0.00,0.000000,,2013-01-03 11:53:00,
2013-01-03 06:02:00,29.0,27.0,-100.00,West,281,0.0,0.0,94,0.00,,,0.00,0.000000,,2013-01-03 12:02:00,
2013-01-03 06:22:00,28.0,27.0,-100.00,North,350,0.0,1.0,95,0.00,,,0.00,0.000000,,2013-01-03 12:22:00,
2013-01-03 06:33:00,28.0,27.0,-100.00,North,350,0.0,1.0,95,0.00,,,0.00,0.000000,,2013-01-03 12:33:00,
2013-01-03 06:43:00,28.0,27.0,-100.00,North,350,0.0,1.0,95,0.00,,,0.00,0.000000,,2013-01-03 12:43:00,
2013-01-03 06:53:00,28.0,27.0,-100.00,North,350,0.0,1.0,95,0.00,,,0.00,0.000000,,2013-01-03 12:53:00,
2013-01-03 07:02:00,28.0,27.0,-100.00,North,350,0.0,1.0,95,0.00,,,0.00,0.000000,,2013-01-03 13:02:00,
2013-01-03 07:03:00,28.0,27.0,-100.00,NNW,335,2.0,4.0,95,0.00,,,0.00,0.000000,,2013-01-03 13:03:00,
2013-01-03 07:22:00,28.0,27.0,-100.00,NNW,335,2.0,4.0,95,0.00,,,0.00,0.000000,,2013-01-03 13:22:00,
2013-01-03 07:33:00,28.0,27.0,-100.00,NNW,335,2.0,4.0,95,0.00,,,0.00,0.000000,,2013-01-03 13:33:00,
2013-01-03 07:43:00,28.0,27.0,-100.00,NNW,335,2.0,4.0,95,0.00,,,0.00,0.000000,,2013-01-03 13:43:00,
2013-01-03 07:53:00,28.0,27.0,-100.00,NNW,335,2.0,4.0,95,0.00,,,0.00,0.000000,,2013-01-03 13:53:00,
2013-01-03 08:03:00,31.0,29.0,-100.00,NW,325,3.0,5.0,94,0.00,,,0.00,31.000000,,2013-01-03 14:03:00,
2013-01-03 08:33:00,31.0,29.0,-100.00,NW,325,3.0,5.0,94,0.00,,,0.00,31.000000,,2013-01-03 14:33:00,
2013-01-03 08:43:00,31.0,29.0,-100.00,NW,325,3.0,5.0,94,0.00,,,0.00,31.000000,,2013-01-03 14:43:00,
2013-01-03 08:53:00,31.0,29.0,-100.00,NW,325,3.0,5.0,94,0.00,,,0.00,31.000000,,2013-01-03 14:53:00,
2013-01-03 09:03:00,36.0,32.0,-100.00,North,359,4.0,7.0,85,0.00,,,0.00,217.000000,,2013-01-03 15:03:00,
2013-01-03 09:34:00,36.0,32.0,-100.00,North,359,4.0,7.0,85,0.00,,,0.00,217.000000,,2013-01-03 15:34:00,
2013-01-03 09:43:00,36.0,32.0,-100.00,North,359,4.0,7.0,85,0.00,,,0.00,217.000000,,2013-01-03 15:43:00,
2013-01-03 09:53:00,36.0,32.0,-100.00,North,359,4.0,7.0,85,0.00,,,0.00,217.000000,,2013-01-03 15:53:00,
2013-01-03 10:03:00,43.0,32.0,-100.00,NNE,21,6.0,9.0,65,0.00,,,0.00,399.000000,,2013-01-03 16:03:00,
2013-01-03 10:23:00,43.0,32.0,-100.00,NNE,21,6.0,9.0,65,0.00,,,0.00,399.000000,,2013-01-03 16:23:00,
2013-01-03 10:34:00,43.0,32.0,-100.00,NNE,21,6.0,9.0,65,0.00,,,0.00,399.000000,,2013-01-03 16:34:00,
2013-01-03 10:43:00,43.0,32.0,-100.00,NNE,21,6.0,9.0,65,0.00,,,0.00,399.000000,,2013-01-03 16:43:00,
2013-01-03 10:53:00,43.0,32.0,-100.00,NNE,21,6.0,9.0,65,0.00,,,0.00,399.000000,,2013-01-03 16:53:00,
2013-01-03 11:03:00,46.0,31.0,-100.00,NNE,15,6.0,11.0,55,0.00,,,0.00,552.000000,,2013-01-03 17:03:00,
2013-01-03 11:23:00,46.0,31.0,-100.00,NNE,15,6.0,11.0,55,0.00,,,0.00,552.000000,,2013-01-03 17:23:00,
2013-01-03 11:33:00,46.0,31.0,-100.00,NNE,15,6.0,11.0,55,0.00,,,0.00,552.000000,,2013-01-03 17:33:00,
2013-01-03 11:43:00,46.0,31.0,-100.00,NNE,15,6.0,11.0,55,0.00,,,0.00,552.000000,,2013-01-03 17:43:00,
2013-01-03 11:53:00,46.0,31.0,-100.00,NNE,15,6.0,11.0,55,0.00,,,0.00,552.000000,,2013-01-03 17:53:00,
2013-01-03 12:03:00,50.0,31.0,-100.00,North,358,6.0,12.0,48,0.00,,,0.00,644.000000,,2013-01-03 18:03:00,
2013-01-03 12:23:00,50.0,31.0,-100.00,North,358,6.0,12.0,48,0.00,,,0.00,644.000000,,2013-01-03 18:23:00,
2013-01-03 12:33:00,50.0,31.0,-100.00,North,358,6.0,12.0,48,0.00,,,0.00,644.000000,,2013-01-03 18:33:00,
2013-01-03 12:43:00,50.0,31.0,-100.00,North,358,6.0,12.0,48,0.00,,,0.00,644.000000,,2013-01-03 18:43:00,
2013-01-03 12:53:00,50.0,31.0,-100.00,North,358,6.0,12.0,48,0.00,,,0.00,644.000000,,2013-01-03 18:53:00,
2013-01-03 13:03:00,52.0,30.0,-100.00,North,1,7.0,13.0,43,0.00,,,0.00,670.000000,,2013-01-03 19:03:00,
2013-01-03 13:56:00,52.0,30.0,-100.00,North,1,7.0,13.0,43,0.00,,,0.00,670.000000,,2013-01-03 19:56:00,
2013-01-03 14:23:00,53.0,29.0,-100.00,North,1,7.0,14.0,39,0.00,,,0.00,621.000000,,2013-01-03 20:23:00,
2013-01-03 14:33:00,53.0,29.0,-100.00,North,1,7.0,14.0,39,0.00,,,0.00,621.000000,,2013-01-03 20:33:00,
2013-01-03 14:43:00,53.0,29.0,-100.00,North,1,7.0,14.0,39,0.00,,,0.00,621.000000,,2013-01-03 20:43:00,
2013-01-03 14:53:00,53.0,29.0,-100.00,North,1,7.0,14.0,39,0.00,,,0.00,621.000000,,2013-01-03 20:53:00,
2013-01-03 15:02:00,53.0,29.0,-100.00,North,1,7.0,14.0,39,0.00,,,0.00,621.000000,,2013-01-03 21:02:00,
2013-01-03 15:37:00,52.0,27.0,-100.00,NNW,334,10.0,14.0,38,0.00,,,0.00,431.000000,,2013-01-03 21:37:00,
2013-01-03 15:50:00,52.0,27.0,-100.00,NNW,334,10.0,14.0,38,0.00,,,0.00,431.000000,,2013-01-03 21:50:00,
2013-01-03 16:02:00,52.0,27.0,-100.00,NNW,334,10.0,14.0,38,0.00,,,0.00,431.000000,,2013-01-03 22:02:00,
2013-01-03 16:33:00,51.0,28.0,-100.00,NNW,339,7.0,12.0,41,0.00,,,0.00,156.000000,,2013-01-03 22:33:00,
2013-01-03 16:43:00,51.0,28.0,-100.00,NNW,339,7.0,12.0,41,0.00,,,0.00,156.000000,,2013-01-03 22:43:00,
2013-01-03 16:52:00,51.0,28.0,-100.00,NNW,339,7.0,12.0,41,0.00,,,0.00,156.000000,,2013-01-03 22:52:00,
2013-01-03 17:02:00,51.0,28.0,-100.00,NNW,339,7.0,12.0,41,0.00,,,0.00,156.000000,,2013-01-03 23:02:00,
2013-01-03 17:03:00,50.0,31.0,-100.00,North,355,6.0,10.0,47,0.00,,,0.00,39.000000,,2013-01-03 23:03:00,
2013-01-03 17:33:00,50.0,31.0,-100.00,North,355,6.0,10.0,47,0.00,,,0.00,39.000000,,2013-01-03 23:33:00,
2013-01-03 17:43:00,50.0,31.0,-100.00,North,355,6.0,10.0,47,0.00,,,0.00,39.000000,,2013-01-03 23:43:00,
2013-01-03 17:53:00,50.0,31.0,-100.00,North,355,6.0,10.0,47,0.00,,,0.00,39.000000,,2013-01-03 23:53:00,
2013-01-03 18:23:00,48.0,30.0,-100.00,NNW,346,4.0,10.0,50,0.00,,,0.00,5.000000,,2013-01-04 00:23:00,
2013-01-03 18:33:00,48.0,30.0,-100.00,NNW,346,4.0,10.0,50,0.00,,,0.00,5.000000,,2013-01-04 00:33:00,
2013-01-03 18:42:00,48.0,30.0,-100.00,NNW,346,4.0,10.0,50,0.00,,,0.00,5.000000,,2013-01-04 00:42:00,
2013-01-03 18:53:00,48.0,30.0,-100.00,NNW,346,4.0,10.0,50,0.00,,,0.00,5.000000,,2013-01-04 00:53:00,
2013-01-03 19:02:00,48.0,30.0,-100.00,NNW,346,4.0,10.0,50,0.00,,,0.00,5.000000,,2013-01-04 01:02:00,
2013-01-03 19:33:00,48.0,31.0,-100.00,North,11,3.0,6.0,52,0.00,,,-99.99,0.000000,,2013-01-04 01:33:00,
2013-01-03 19:42:00,48.0,31.0,-100.00,North,11,3.0,6.0,52,0.00,,,-99.99,0.000000,,2013-01-04 01:42:00,
2013-01-03 19:52:00,48.0,31.0,-100.00,North,11,3.0,6.0,52,0.00,,,-99.99,0.000000,,2013-01-04 01:52:00,
2013-01-03 20:02:00,48.0,31.0,-100.00,North,11,3.0,6.0,52,0.00,,,-99.99,0.000000,,2013-01-04 02:02:00,
2013-01-03 20:23:00,47.0,31.0,-100.00,North,8,3.0,5.0,53,0.00,,,0.00,0.000000,,2013-01-04 02:23:00,
2013-01-03 20:33:00,47.0,31.0,-100.00,North,8,3.0,5.0,53,0.00,,,0.00,0.000000,,2013-01-04 02:33:00,
2013-01-03 20:42:00,47.0,31.0,-100.00,North,8,3.0,5.0,53,0.00,,,0.00,0.000000,,2013-01-04 02:42:00,
2013-01-03 20:53:00,47.0,31.0,-100.00,North,8,3.0,5.0,53,0.00,,,0.00,0.000000,,2013-01-04 02:53:00,
2013-01-03 21:02:00,47.0,31.0,-100.00,North,8,3.0,5.0,53,0.00,,,0.00,0.000000,,2013-01-04 03:02:00,
2013-01-03 21:33:00,47.0,31.0,-100.00,NNE,21,3.0,6.0,54,0.00,,,0.00,0.000000,,2013-01-04 03:33:00,
2013-01-03 21:43:00,47.0,31.0,-100.00,NNE,21,3.0,6.0,54,0.00,,,0.00,0.000000,,2013-01-04 03:43:00,
2013-01-03 21:53:00,47.0,31.0,-100.00,NNE,21,3.0,6.0,54,0.00,,,0.00,0.000000,,2013-01-04 03:53:00,
2013-01-03 22:02:00,47.0,31.0,-100.00,NNE,21,3.0,6.0,54,0.00,,,0.00,0.000000,,2013-01-04 04:02:00,
2013-01-03 22:03:00,46.0,30.0,-100.00,NNE,30,3.0,6.0,54,0.00,,,0.00,0.000000,,2013-01-04 04:03:00,
2013-01-03 22:32:00,46.0,30.0,-100.00,NNE,30,3.0,6.0,54,0.00,,,0.00,0.000000,,2013-01-04 04:32:00,
2013-01-03 22:42:00,46.0,30.0,-100.00,NNE,30,3.0,6.0,54,0.00,,,0.00,0.000000,,2013-01-04 04:42:00,
2013-01-03 22:52:00,46.0,30.0,-100.00,NNE,30,3.0,6.0,54,0.00,,,0.00,0.000000,,2013-01-04 04:52:00,
2013-01-03 23:33:00,46.0,31.0,-100.00,NNE,27,5.0,9.0,55,0.00,,,0.00,0.000000,,2013-01-04 05:33:00,
2013-01-03 23:42:00,46.0,31.0,-100.00,NNE,27,5.0,9.0,55,0.00,,,0.00,0.000000,,2013-01-04 05:42:00,
2013-01-03 23:53:00,46.0,31.0,-100.00,NNE,27,5.0,9.0,55,0.00,,,0.00,0.000000,,2013-01-04 05:53:00,